Location: *
(47.2969°N, 10.2930°E)
Time: 13:52:51
(UTC+00:00)

STARLINK-1222 - Visible Passes

Search period start: 06 August 2020 00:00
Search period end: 16 August 2020 00:00
Orbit: 548 x 551 km, 53.0° (Epoch: 05 August)

Date Brightness Start Highest point End Pass type
(mag) Time Alt. Az. Time Alt. Az. Time Alt. Az.
06 Aug 4.6 20:26:57 10° WNW 20:30:56 43° NNE 20:34:13 14° E visible
06 Aug 4.1 22:06:35 10° WNW 22:09:51 51° W 22:09:51 51° W visible
07 Aug 4.4 20:21:33 10° WNW 20:25:35 48° NNE 20:28:36 17° E visible
07 Aug 4.5 22:01:12 10° WNW 22:04:14 41° W 22:04:14 41° W visible
08 Aug 4.1 20:16:11 10° WNW 20:20:17 55° NNE 20:23:05 19° E visible
08 Aug 4.8 21:55:55 10° WNW 21:58:43 34° WSW 21:58:43 34° WSW visible
09 Aug 3.9 20:10:53 10° WNW 20:15:00 64° NNE 20:17:39 21° E visible
09 Aug 5.1 21:50:43 10° WNW 21:53:18 27° WSW 21:53:18 27° WSW visible
10 Aug 3.7 20:05:37 10° WNW 20:09:46 77° NNE 20:12:19 23° ESE visible
10 Aug 5.4 21:45:38 10° W 21:47:58 22° WSW 21:47:58 22° WSW visible
11 Aug 3.6 20:00:25 10° WNW 20:04:34 88° SSW 20:07:05 23° ESE visible
11 Aug 5.7 21:40:44 10° W 21:42:44 18° WSW 21:42:44 18° WSW visible
12 Aug 3.7 19:55:16 10° WNW 19:59:25 71° SSW 20:01:56 22° SE visible
12 Aug 5.9 21:36:06 10° W 21:37:36 14° WSW 21:37:36 14° WSW visible
13 Aug 4.0 19:50:12 10° WNW 19:54:16 55° SW 19:56:55 20° SE visible
13 Aug 6.2 21:32:12 10° WSW 21:32:35 10° WSW 21:32:35 10° WSW visible
14 Aug 4.4 19:45:13 10° WNW 19:49:09 43° SW 19:51:59 17° SSE visible
15 Aug 4.8 19:40:21 10° WNW 19:44:05 33° SW 19:47:11 13° SSE visible
